Wetterdaten am Flugplatz MSG Übersee

alte Datensätze gelöscht
130 aktuelle Wetterdateneinträge gefunden

Datum/Uhrzeit   Windrichtung/Grad    Geschw./kmh    Temp./C°    Luftdruck/mbar    Spannung/Volt   
2026-05-04 00:04 NW/321 6 19 1016 12,62
2026-05-04 00:14 NW/327 3 19 1017 12,55
2026-05-04 00:24 NW/329 3 19 1017 12,61
2026-05-04 00:34 NW/329 2 19 1017 12,60
2026-05-04 00:45 NW/329 3 18 1017 12,58
2026-05-04 00:55 NW/329 2 18 1017 12,62
2026-05-04 01:05 NW/329 3 18 1017 12,43
2026-05-04 01:15 W/287 4 18 1017 12,60
2026-05-04 01:25 W/271 6 18 1017 12,58
2026-05-04 01:35 W/269 7 17 1017 12,55
2026-05-04 01:45 W/268 8 17 1017 12,67
2026-05-04 01:55 W/266 6 17 1017 12,70
2026-05-04 02:05 W/288 8 17 1018 12,30
2026-05-04 02:15 NW/294 11 17 1018 12,55
2026-05-04 02:25 NW/300 13 17 1018 12,60
2026-05-04 02:35 NW/304 15 17 1018 12,52
2026-05-04 02:45 NW/307 10 17 1018 12,52
2026-05-04 02:55 NW/304 7 17 1018 12,55
2026-05-04 03:05 W/291 6 17 1018 12,39
2026-05-04 03:16 W/290 7 17 1018 12,51
2026-05-04 03:26 W/275 6 17 1019 12,60
2026-05-04 03:36 W/278 8 17 1019 12,60
2026-05-04 03:46 NW/299 9 17 1019 12,57
2026-05-04 03:56 W/290 7 17 1019 12,57
2026-05-04 04:06 W/274 9 17 1019 12,16
2026-05-04 04:16 W/281 7 17 1019 12,42
2026-05-04 04:26 W/276 7 17 1019 12,52
2026-05-04 04:36 NW/297 6 16 1019 12,51
2026-05-04 04:46 W/287 5 16 1019 12,49
2026-05-04 04:56 W/278 4 16 1019 12,49
2026-05-04 05:06 W/278 2 16 1019 12,42
2026-05-04 05:16 W/278 1 16 1019 12,54
2026-05-04 05:26 W/278 3 16 1018 12,48
2026-05-04 05:36 W/278 1 16 1018 12,54
2026-05-04 05:46 W/278 2 15 1018 12,39
2026-05-04 05:56 W/278 3 15 1018 12,43
2026-05-04 06:07 W/278 2 15 1018 12,48
2026-05-04 06:17 W/278 2 15 1018 12,45
2026-05-04 06:27 W/278 2 15 1018 12,57
2026-05-04 06:37 W/278 2 14 1018 12,40
2026-05-04 06:47 W/278 4 14 1018 12,35
2026-05-04 06:57 W/278 1 14 1018 12,46
2026-05-04 07:07 W/278 1 14 1018 12,45
2026-05-04 07:17 W/278 0 14 1019 12,43
2026-05-04 07:27 W/278 0 14 1019 12,48
2026-05-04 07:37 W/278 0 14 1019 12,58
2026-05-04 07:47 W/278 1 15 1018 12,57
2026-05-04 07:57 W/278 3 16 1019 12,46
2026-05-04 08:07 W/278 4 17 1019 12,55
2026-05-04 08:17 W/278 4 18 1019 12,65
2026-05-04 08:27 W/279 6 19 1019 12,73
2026-05-04 08:37 W/279 6 20 1019 12,71
2026-05-04 08:48 NW/314 8 20 1019 12,71
2026-05-04 08:58 NW/337 8 21 1019 12,84
2026-05-04 09:08 N/10 8 22 1019 12,54
2026-05-04 09:18 NO/48 5 23 1019 12,74
2026-05-04 09:28 N/353 5 24 1019 12,70
2026-05-04 09:38 N/341 8 24 1019 12,68
2026-05-04 09:48 N/347 9 25 1019 12,68
2026-05-04 09:58 NO/25 11 25 1019 12,68
2026-05-04 10:08 N/358 10 25 1019 12,73
2026-05-04 10:18 NO/33 7 26 1018 12,73
2026-05-04 10:28 O/78 7 26 1018 12,77
2026-05-04 10:38 NO/55 5 26 1018 12,93
2026-05-04 10:48 NO/45 8 26 1018 12,40
2026-05-04 10:59 NO/53 4 27 1018 12,62
2026-05-04 11:09 W/275 7 27 1018 12,52
2026-05-04 11:19 O/89 5 27 1018 12,57
2026-05-04 11:29 NO/54 6 27 1018 12,57
2026-05-04 11:39 N/5 10 28 1018 12,61
2026-05-04 11:49 N/21 9 28 1018 12,61
2026-05-04 11:59 N/355 14 28 1017 12,64
2026-05-04 12:09 N/355 13 28 1017 12,65
2026-05-04 12:19 N/6 15 28 1017 12,87
2026-05-04 12:29 N/12 18 28 1017 12,79
2026-05-04 12:39 N/11 19 28 1017 12,73
2026-05-04 12:49 N/7 18 27 1017 12,23
2026-05-04 12:59 N/5 20 27 1016 12,24
2026-05-04 13:09 N/6 16 27 1016 12,46
2026-05-04 13:20 N/7 18 27 1016 12,46
2026-05-04 13:30 N/5 21 27 1016 12,51
2026-05-04 13:40 N/5 19 27 1016 12,54
2026-05-04 13:50 NO/56 15 27 1016 12,55
2026-05-04 14:00 O/72 11 27 1016 12,57
2026-05-04 14:10 NO/67 11 27 1015 12,60
2026-05-04 14:20 O/76 11 27 1015 12,61
2026-05-04 14:30 O/78 7 27 1015 12,64
2026-05-04 14:40 O/90 7 27 1015 12,64
2026-05-04 14:50 O/99 9 28 1015 12,18
2026-05-04 15:00 O/86 11 28 1015 12,40
2026-05-04 15:10 O/78 11 28 1015 12,43
2026-05-04 15:20 O/92 9 28 1014 12,46
2026-05-04 15:30 O/72 12 28 1014 12,51
2026-05-04 15:41 NO/65 10 28 1014 12,55
2026-05-04 15:51 O/78 13 28 1014 12,60
2026-05-04 16:01 O/108 7 28 1014 12,65
2026-05-04 16:11 O/111 6 28 1014 12,79
2026-05-04 16:21 O/69 16 28 1014 12,65
2026-05-04 16:31 O/87 11 28 1014 12,73
2026-05-04 16:41 O/70 12 28 1014 12,43
2026-05-04 16:51 O/83 9 28 1014 12,57
2026-05-04 17:01 NO/57 12 28 1014 12,67
2026-05-04 17:11 NO/49 9 28 1014 12,71
2026-05-04 17:21 N/11 11 28 1014 12,87
2026-05-04 17:31 N/357 10 28 1014 12,74
2026-05-04 17:41 N/350 13 28 1014 12,86
2026-05-04 17:51 N/6 18 28 1014 12,80
2026-05-04 18:02 NO/47 20 28 1013 12,79
2026-05-04 18:12 O/69 18 27 1014 12,93
2026-05-04 18:22 O/72 8 27 1014 12,90
2026-05-04 18:32 NO/64 2 27 1014 12,54
2026-05-04 18:42 NO/62 5 27 1014 12,68
2026-05-04 18:52 NO/39 6 27 1014 12,58
2026-05-04 19:02 N/8 6 27 1014 12,60
2026-05-04 19:12 SW/224 4 26 1014 12,61
2026-05-04 19:22 SW/219 4 26 1014 12,65
2026-05-04 19:32 W/251 15 26 1014 12,82
2026-05-04 19:42 SW/247 13 26 1013 12,76
2026-05-04 19:52 SW/233 13 25 1014 12,82
2026-05-04 20:02 S/172 10 25 1013 12,76
2026-05-04 20:12 SW/214 11 25 1014 12,30
2026-05-04 20:22 SW/242 8 24 1014 12,51
2026-05-04 20:32 S/173 7 24 1014 12,54
2026-05-04 20:43 SO/151 6 24 1014 12,55
2026-05-04 20:53 SO/137 4 24 1014 12,55
2026-05-04 21:03 S/199 3 23 1014 12,61
2026-05-04 21:13 SW/226 5 23 1014 12,65
2026-05-04 21:23 SW/230 4 23 1014 12,67
2026-05-04 21:33 SW/231 3 22 1014 12,68
2026-05-04 21:43 SW/231 2 22 1014 12,23